KB4SHP Weather Reports


time (UTC)temp
C
wind
direction
speed
KPH
gust
KPH
rain 1hr
cm
rain 24hr
cm
rain mn
cm
humidity
%
barometer
mb
20260906113000 21 112 0.0 0.0 0.00 0.00 0.00 91 1014.8
20260906111458 21 112 0.0 0.0 0.00 0.00 0.00 90 1014.7
20260906105957 21 112 0.0 0.0 0.00 0.00 0.00 90 1014.5
20260906104459 21 112 0.0 0.0 0.00 0.00 0.00 89 1014.2
20260906102958 21 113 0.0 0.0 0.00 0.00 0.00 88 1014.0
20260906100000 22 147 0.0 0.0 0.00 0.00 0.00 88 1013.9
20260906094458 22 24 0.0 1.6 0.00 0.00 0.00 89 1013.7
20260906091457 22 29 0.0 0.0 0.00 0.00 0.00 91 1013.4
20260906090000 22 28 0.0 0.0 0.00 0.00 0.00 91 1013.3
20260906082957 22 28 0.0 0.0 0.00 0.00 0.00 91 1013.1
20260906081458 22 28 0.0 0.0 0.00 0.00 0.00 91 1013.1
20260906074458 22 28 0.0 0.0 0.00 0.00 0.00 92 1013.0
20260906072957 21 27 0.0 0.0 0.00 0.00 0.00 93 1013.0
20260906071459 21 26 0.0 0.0 0.00 0.00 0.00 92 1013.1
20260906064456 21 27 0.0 0.0 0.00 0.00 0.00 91 1013.3
20260906061458 21 27 0.0 0.0 0.00 0.00 0.00 91 1013.2
20260906060000 21 27 0.0 0.0 0.00 0.00 0.00 91 1013.4
20260906054458 21 18 0.0 0.0 0.00 0.00 0.00 90 1013.3
20260906051458 21 17 0.0 0.0 0.00 0.00 0.00 91 1013.3
20260906045959 21 18 0.0 0.0 0.00 0.00 0.00 92 1013.4
20260906044459 21 18 0.0 0.0 0.00 0.00 0.00 91 1013.4
20260906042959 21 18 0.0 0.0 0.00 0.00 0.00 91 1013.5
20260906041500 21 19 0.0 0.0 0.00 0.00 0.00 90 1013.5
20260906035959 22 19 0.0 0.0 0.00 0.00 0.00 90 1013.6
20260906032959 22 19 0.0 0.0 0.00 0.00 0.00 88 1013.6
20260906025959 22 18 0.0 0.0 0.00 0.00 0.00 87 1013.5
20260906022958 23 18 0.0 0.0 0.00 0.00 0.00 85 1013.2
20260906014459 24 18 0.0 0.0 0.00 0.00 0.00 83 1012.8
20260906013001 25 18 0.0 0.0 0.00 0.00 0.00 82 1012.6
20260906011501 25 19 0.0 0.0 0.00 0.00 0.00 80 1012.1
20260906010001 24 252 0.0 0.0 0.00 0.00 0.00 83 1012.1
20260906004501 25 252 0.0 0.0 0.00 0.00 0.00 81 1012.0
20260906002959 26 252 0.0 0.0 0.00 0.00 0.00 77 1011.7
20260906001500 26 252 0.0 0.0 0.00 0.00 0.00 75 1011.8
20260906000002 27 252 0.0 0.0 0.00 0.00 0.00 72 1011.6
20260905234500 28 252 0.0 0.0 0.00 0.00 0.00 68 1011.6
20260905233000 28 277 0.0 1.6 0.00 0.00 0.00 66 1011.2
20260905231500 29 235 0.0 1.6 0.00 0.00 0.00 65 1011.1
20260905225958 30 224 0.0 1.6 0.00 0.00 0.00 64 1011.1
20260905224458 31 285 0.0 1.6 0.00 0.00 0.00 63 1011.2
20260905221458 30 202 0.0 0.0 0.00 0.00 0.00 65 1011.2
20260905220002 30 283 0.0 1.6 0.00 0.00 0.00 63 1011.3
20260905214500 30 231 0.0 0.0 0.00 0.00 0.00 63 1011.3
20260905213000 30 226 0.0 0.0 0.00 0.00 0.00 63 1011.3
20260905211459 31 211 0.0 0.0 0.00 0.00 0.00 63 1011.2
20260905205959 31 232 0.0 1.6 0.00 0.00 0.00 62 1011.3
20260905204459 30 221 0.0 1.6 0.00 0.00 0.00 65 1011.1
20260905201459 29 197 0.0 0.0 0.00 0.00 0.00 66 1011.5
20260905194459 28 250 0.0 0.0 0.00 0.00 0.00 68 1011.3
20260905193001 28 238 0.0 0.0 0.00 0.00 0.00 68 1011.1
20260905191501 28 223 0.0 0.0 0.00 0.00 0.00 67 1011.0
20260905190001 28 203 0.0 0.0 0.00 0.00 0.00 64 1011.4
20260905184458 30 247 0.0 0.0 0.00 0.00 0.00 63 1011.7
20260905182959 31 288 0.0 3.2 0.00 0.00 0.00 61 1012.2
20260905181459 31 259 0.0 6.4 0.00 0.00 0.00 61 1012.7
20260905180001 31 11 0.0 6.4 0.00 0.00 0.00 62 1012.4
20260905174458 32 300 0.0 8.0 0.00 0.00 0.00 63 1012.2
20260905172958 32 324 0.0 6.4 0.00 0.00 0.00 61 1012.5
20260905170001 32 36 1.6 11.3 0.00 0.00 0.00 58 1013.1
20260905164459 33 300 0.0 3.2 0.00 0.00 0.00 59 1013.2
20260905162959 32 330 0.0 6.4 0.00 0.00 0.00 58 1013.3
20260905161459 32 298 0.0 3.2 0.00 0.00 0.00 60 1013.4
20260905154459 32 298 0.0 8.0 0.00 0.00 0.00 59 1013.7
20260905151459 30 272 0.0 1.6 0.00 0.00 0.00 69 1014.1
20260905144458 29 284 0.0 0.0 0.00 0.00 0.00 69 1014.2
20260905142959 28 266 0.0 0.0 0.00 0.00 0.00 70 1014.1
20260905141459 28 231 0.0 3.2 0.00 0.00 0.00 73 1014.1
20260905134459 26 129 0.0 0.0 0.00 0.00 0.00 82 1014.1
20260905133000 25 122 0.0 0.0 0.00 0.00 0.00 85 1014.0
20260905130001 23 105 0.0 0.0 0.00 0.00 0.00 89 1014.0
20260905124458 22 108 0.0 0.0 0.00 0.00 0.00 90 1014.2
20260905123000 21 288 0.0 0.0 0.00 0.00 0.00 92 1014.1
20260905121457 21 292 0.0 0.0 0.00 0.00 0.00 93 1014.1
20260905120000 20 291 0.0 0.0 0.00 0.00 0.00 93 1014.0
20260905114458 20 291 0.0 0.0 0.00 0.00 0.00 93 1013.8